YC0ACE-13 Weather Reports


time (UTC)temp
C
wind
direction
speed
KPH
gust
KPH
rain 1hr
cm
rain 24hr
cm
rain mn
cm
humidity
%
barometer
mb
20260509032524 31 347 6.4 8.0 0.00 0.00 0.00 67 1015.2
20260509032025 31 358 1.6 3.2 0.00 0.00 0.00 69 1015.2
20260509031524 31 220 0.0 0.0 0.00 0.00 0.00 69 1015.2
20260509031025 31 357 3.2 4.8 0.00 0.00 0.00 69 1015.2
20260509030524 31 7 4.8 4.8 0.00 0.00 0.00 69 1015.6
20260509030025 31 16 4.8 4.8 0.00 0.00 0.00 68 1015.6
20260509025524 31 19 4.8 8.0 0.00 0.00 0.00 67 1015.2
20260509025024 31 64 4.8 8.0 0.00 0.00 0.00 66 1015.2
20260509024525 31 94 4.8 4.8 0.00 0.00 0.00 67 1015.6
20260509024024 31 222 0.0 0.0 0.00 0.00 0.00 68 1015.6
20260509023524 31 213 0.0 0.0 0.00 0.00 0.00 69 1015.6
20260509023025 31 155 1.6 1.6 0.00 0.00 0.00 70 1015.2
20260509022524 31 3 4.8 8.0 0.00 0.00 0.00 71 1015.6
20260509022025 31 229 3.2 3.2 0.00 0.00 0.00 70 1015.6
20260509021525 31 348 1.6 1.6 0.00 0.00 0.00 70 1015.6
20260509021024 31 326 1.6 3.2 0.00 0.00 0.00 70 1015.6
20260509020524 31 311 0.0 0.0 0.00 0.00 0.00 70 1015.6
20260509020024 30 192 0.0 0.0 0.00 0.00 0.00 72 1015.6
20260509015525 30 186 0.0 0.0 0.00 0.00 0.00 73 1015.6
20260509015024 30 174 1.6 1.6 0.00 0.00 0.00 73 1015.6
20260509014524 30 216 1.6 1.6 0.00 0.00 0.00 73 1015.6
20260509014024 30 196 0.0 0.0 0.00 0.00 0.00 73 1015.6
20260509013524 30 65 4.8 4.8 0.00 0.00 0.00 74 1015.9
20260509013024 30 145 4.8 4.8 0.00 0.00 0.00 74 1015.9
20260509012524 30 114 4.8 4.8 0.00 0.00 0.00 74 1015.6
20260509012026 30 196 1.6 3.2 0.00 0.00 0.00 75 1015.6
20260509011524 30 206 1.6 1.6 0.00 0.00 0.00 75 1015.6
20260509011028 29 206 1.6 1.6 0.00 0.00 0.00 77 1015.6
20260509010525 29 215 4.8 4.8 0.00 0.00 0.00 77 1015.6
20260509010025 28 191 3.2 3.2 0.00 0.00 0.00 77 1015.6
20260509005524 28 208 1.6 3.2 0.00 0.00 0.00 78 1015.6
20260509005024 28 191 3.2 3.2 0.00 0.00 0.00 77 1015.6
20260509004524 28 205 1.6 1.6 0.00 0.00 0.00 78 1015.6
20260509004025 28 211 1.6 1.6 0.00 0.00 0.00 77 1015.6
20260509003524 28 187 0.0 0.0 0.00 0.00 0.00 79 1015.2
20260509003024 28 179 1.6 1.6 0.00 0.00 0.00 79 1015.6
20260509002524 28 207 0.0 1.6 0.00 0.00 0.00 79 1015.2
20260509002024 28 201 0.0 0.0 0.00 0.00 0.00 80 1015.2
20260509001524 28 207 0.0 0.0 0.00 0.00 0.00 81 1015.2
20260509001024 28 193 0.0 0.0 0.00 0.00 0.00 80 1015.2
20260509000524 27 191 0.0 0.0 0.00 0.00 0.00 81 1015.2
20260509000026 27 202 0.0 1.6 0.00 0.00 0.00 82 1014.9
20260508235524 27 192 0.0 1.6 0.00 0.00 0.00 82 1014.9
20260508235025 27 194 1.6 1.6 0.00 0.00 0.00 83 1014.9
20260508234525 27 191 0.0 0.0 0.00 0.00 0.00 83 1014.9
20260508234025 27 213 1.6 1.6 0.00 0.00 0.00 84 1014.6
20260508233524 27 199 3.2 3.2 0.00 0.00 0.00 84 1014.6
20260508233025 27 193 1.6 1.6 0.00 0.00 0.00 85 1014.6
20260508232524 27 214 3.2 3.2 0.00 0.00 0.00 85 1014.6
20260508232024 27 195 3.2 3.2 0.00 0.00 0.00 85 1014.6
20260508231525 27 198 1.6 1.6 0.00 0.00 0.00 85 1014.6
20260508231025 27 215 3.2 3.2 0.00 0.00 0.00 84 1014.2
20260508230526 27 208 3.2 3.2 0.00 0.00 0.00 84 1014.2
20260508230026 27 190 6.4 8.0 0.00 0.00 0.00 84 1014.2
20260508225524 27 204 1.6 3.2 0.00 0.00 0.00 84 1014.2
20260508225024 27 219 3.2 3.2 0.00 0.00 0.00 84 1014.2
20260508224524 27 223 6.4 8.0 0.00 0.00 0.00 84 1013.9
20260508224024 27 175 3.2 3.2 0.00 0.00 0.00 84 1014.2
20260508223525 27 206 3.2 3.2 0.00 0.00 0.00 84 1013.9
20260508223026 27 224 3.2 3.2 0.00 0.00 0.00 84 1013.9
20260508222524 27 207 3.2 3.2 0.00 0.00 0.00 84 1013.9
20260508222026 27 197 0.0 1.6 0.00 0.00 0.00 85 1013.9
20260508221524 27 198 0.0 0.0 0.00 0.00 0.00 85 1013.9
20260508221024 27 203 1.6 1.6 0.00 0.00 0.00 85 1013.5
20260508220524 27 201 0.0 0.0 0.00 0.00 0.00 85 1013.9
20260508220025 27 201 0.0 0.0 0.00 0.00 0.00 85 1013.9
20260508215524 27 203 0.0 0.0 0.00 0.00 0.00 84 1013.5
20260508215025 27 208 0.0 0.0 0.00 0.00 0.00 84 1013.9
20260508214524 27 213 0.0 1.6 0.00 0.00 0.00 83 1013.9
20260508214025 27 225 0.0 1.6 0.00 0.00 0.00 83 1013.5
20260508213524 27 217 0.0 0.0 0.00 0.00 0.00 83 1013.9
20260508213024 27 226 1.6 1.6 0.00 0.00 0.00 83 1013.5
20260508212525 27 226 1.6 1.6 0.00 0.00 0.00 84 1013.5
20260508212025 27 234 1.6 3.2 0.00 0.00 0.00 84 1013.5
20260508211525 27 198 0.0 0.0 0.00 0.00 0.00 84 1013.5
20260508211024 27 184 0.0 0.0 0.00 0.00 0.00 84 1013.5
20260508210524 27 179 0.0 0.0 0.00 0.00 0.00 84 1013.5
20260508210024 27 191 0.0 0.0 0.00 0.00 0.00 84 1013.5
20260508205524 27 189 1.6 1.6 0.00 0.00 0.00 83 1013.5
20260508205026 27 199 1.6 1.6 0.00 0.00 0.00 83 1013.5
20260508204525 27 201 0.0 0.0 0.00 0.00 0.00 83 1013.9
20260508204025 27 214 1.6 1.6 0.00 0.00 0.00 83 1013.9
20260508203524 27 208 0.0 0.0 0.00 0.00 0.00 83 1013.9
20260508203024 27 205 0.0 0.0 0.00 0.00 0.00 83 1013.5
20260508202525 27 200 0.0 0.0 0.00 0.00 0.00 83 1013.9
20260508202025 27 182 0.0 0.0 0.00 0.00 0.00 83 1013.9
20260508201525 27 183 0.0 1.6 0.00 0.00 0.00 83 1013.9
20260508201024 27 201 0.0 0.0 0.00 0.00 0.00 82 1013.9
20260508200524 27 186 0.0 0.0 0.00 0.00 0.00 82 1013.9
20260508200025 27 191 3.2 3.2 0.00 0.00 0.00 82 1013.9
20260508195525 27 179 0.0 1.6 0.00 0.00 0.00 83 1013.9
20260508195025 27 214 1.6 3.2 0.00 0.00 0.00 82 1013.9
20260508194524 27 227 3.2 3.2 0.00 0.00 0.00 82 1013.9
20260508194025 27 220 1.6 3.2 0.00 0.00 0.00 82 1013.9
20260508193525 27 208 4.8 4.8 0.00 0.00 0.00 82 1013.5
20260508193025 27 213 1.6 3.2 0.00 0.00 0.00 82 1013.5
20260508192524 27 207 1.6 1.6 0.00 0.00 0.00 82 1013.9
20260508192024 27 221 3.2 3.2 0.00 0.00 0.00 82 1013.9
20260508191524 27 202 1.6 1.6 0.00 0.00 0.00 82 1013.5
20260508191025 27 210 1.6 1.6 0.00 0.00 0.00 82 1013.9
20260508190524 27 190 4.8 4.8 0.00 0.00 0.00 81 1013.9
20260508190024 28 241 1.6 3.2 0.00 0.00 0.00 81 1013.9
20260508185524 28 183 1.6 1.6 0.00 0.00 0.00 81 1013.9
20260508185025 28 195 1.6 1.6 0.00 0.00 0.00 81 1013.9
20260508184525 28 182 1.6 1.6 0.00 0.00 0.00 81 1013.9
20260508184024 28 197 1.6 1.6 0.00 0.00 0.00 80 1014.2
20260508183525 28 200 1.6 1.6 0.00 0.00 0.00 80 1014.2
20260508183027 28 216 1.6 1.6 0.00 0.00 0.00 80 1014.2
20260508182524 28 206 0.0 0.0 0.00 0.00 0.00 80 1014.2
20260508182024 28 209 0.0 1.6 0.00 0.00 0.00 80 1013.9
20260508181525 28 206 0.0 0.0 0.00 0.00 0.00 79 1014.2
20260508181024 28 214 1.6 1.6 0.00 0.00 0.00 79 1014.2
20260508180525 28 216 1.6 1.6 0.00 0.00 0.00 79 1014.6
20260508180025 28 212 0.0 0.0 0.00 0.00 0.00 79 1014.2
20260508175525 28 217 1.6 1.6 0.00 0.00 0.00 79 1014.6
20260508175024 28 219 1.6 1.6 0.00 0.00 0.00 78 1014.6
20260508174525 28 243 1.6 1.6 0.00 0.00 0.00 79 1014.6
20260508174025 28 209 1.6 1.6 0.00 0.00 0.00 79 1014.6
20260508173525 28 216 1.6 1.6 0.00 0.00 0.00 79 1014.6
20260508173027 28 201 0.0 0.0 0.00 0.00 0.00 79 1014.6
20260508172525 28 215 1.6 3.2 0.00 0.00 0.00 78 1014.6
20260508172025 28 212 1.6 1.6 0.00 0.00 0.00 79 1014.6
20260508171525 28 225 3.2 3.2 0.00 0.00 0.00 78 1014.6
20260508171026 28 222 4.8 4.8 0.00 0.00 0.00 78 1014.6
20260508170525 28 192 1.6 1.6 0.00 0.00 0.00 79 1014.6
20260508170024 28 228 1.6 1.6 0.00 0.00 0.00 79 1014.6
20260508165524 28 223 3.2 3.2 0.00 0.00 0.00 79 1014.9
20260508165025 28 209 1.6 1.6 0.00 0.00 0.00 79 1014.6
20260508164525 28 228 3.2 3.2 0.00 0.00 0.00 78 1014.6
20260508164025 28 243 4.8 4.8 0.00 0.00 0.00 78 1014.9
20260508163526 28 222 3.2 3.2 0.00 0.00 0.00 78 1014.9
20260508163025 28 215 1.6 1.6 0.00 0.00 0.00 78 1014.9
20260508162526 28 227 3.2 3.2 0.00 0.00 0.00 78 1014.9
20260508162024 28 218 1.6 3.2 0.00 0.00 0.00 78 1015.2
20260508161526 28 196 3.2 3.2 0.00 0.00 0.00 78 1015.2
20260508161025 28 200 1.6 3.2 0.00 0.00 0.00 78 1015.2
20260508160125 28 212 4.8 4.8 0.00 0.00 0.00 78 1015.2
20260508155525 28 223 6.4 8.0 0.00 0.00 0.00 78 1015.2
20260508155024 28 208 3.2 3.2 0.00 0.00 0.00 78 1015.2
20260508154524 28 231 3.2 3.2 0.00 0.00 0.00 78 1015.2
20260508154025 28 196 3.2 3.2 0.00 0.00 0.00 78 1015.2
20260508153524 28 211 3.2 3.2 0.00 0.00 0.00 78 1015.2
20260508153026 28 222 3.2 3.2 0.00 0.00 0.00 78 1015.2
20260508152529 28 219 3.2 3.2 0.00 0.00 0.00 78 1014.9
20260508152024 28 224 3.2 3.2 0.00 0.00 0.00 78 1014.9
20260508151525 28 210 3.2 3.2 0.00 0.00 0.00 77 1014.9
20260508151030 29 215 3.2 3.2 0.00 0.00 0.00 77 1014.9
20260508150525 29 219 3.2 3.2 0.00 0.00 0.00 76 1014.9
20260508150025 29 237 3.2 3.2 0.00 0.00 0.00 76 1015.2
20260508145524 29 237 3.2 3.2 0.00 0.00 0.00 76 1015.2
20260508145024 29 210 1.6 1.6 0.00 0.00 0.00 76 1015.2
20260508144525 29 219 1.6 1.6 0.00 0.00 0.00 76 1015.2
20260508144024 29 238 3.2 3.2 0.00 0.00 0.00 75 1014.9
20260508143524 29 209 1.6 1.6 0.00 0.00 0.00 76 1014.9
20260508143025 29 212 3.2 3.2 0.00 0.00 0.00 76 1015.2
20260508142525 29 217 1.6 1.6 0.00 0.00 0.00 76 1015.2
20260508142024 29 216 1.6 3.2 0.00 0.00 0.00 75 1014.9
20260508141525 29 212 1.6 1.6 0.00 0.00 0.00 75 1015.2
20260508141025 29 175 1.6 1.6 0.00 0.00 0.00 75 1014.9
20260508140525 29 203 4.8 4.8 0.00 0.00 0.00 75 1015.2
20260508140025 29 213 3.2 3.2 0.00 0.00 0.00 75 1014.9
20260508135524 30 235 4.8 4.8 0.00 0.00 0.00 75 1014.9
20260508135025 30 202 6.4 8.0 0.00 0.00 0.00 75 1014.6
20260508134525 30 225 1.6 1.6 0.00 0.00 0.00 75 1014.9
20260508134024 30 191 4.8 4.8 0.00 0.00 0.00 75 1014.6
20260508133525 30 212 6.4 8.0 0.00 0.00 0.00 75 1014.6
20260508133029 30 215 3.2 3.2 0.00 0.00 0.00 74 1014.6
20260508132524 30 161 4.8 8.0 0.00 0.00 0.00 72 1014.6
20260508132024 30 185 4.8 8.0 0.00 0.00 0.00 72 1014.9
20260508131527 30 207 1.6 3.2 0.00 0.00 0.00 71 1014.6
20260508131024 30 178 0.0 0.0 0.00 0.00 0.00 70 1014.6
20260508130525 30 198 0.0 0.0 0.00 0.00 0.00 70 1014.6
20260508130025 30 224 0.0 0.0 0.00 0.00 0.00 70 1014.9
20260508125526 30 207 0.0 0.0 0.00 0.00 0.00 70 1014.6
20260508125024 30 264 0.0 0.0 0.00 0.00 0.00 70 1014.6
20260508124524 30 243 3.2 3.2 0.00 0.00 0.00 70 1014.6
20260508124024 30 295 0.0 1.6 0.00 0.00 0.00 70 1014.6
20260508123526 30 232 0.0 1.6 0.00 0.00 0.00 70 1014.6
20260508123025 30 279 0.0 1.6 0.00 0.00 0.00 70 1014.6
20260508122525 30 249 0.0 0.0 0.00 0.00 0.00 70 1014.2
20260508122024 30 301 1.6 1.6 0.00 0.00 0.00 70 1014.2
20260508121525 30 211 1.6 1.6 0.00 0.00 0.00 70 1014.2
20260508121025 30 19 1.6 3.2 0.00 0.00 0.00 70 1013.9
20260508120524 30 23 1.6 1.6 0.00 0.00 0.00 69 1013.9
20260508120025 30 3 1.6 1.6 0.00 0.00 0.00 69 1013.9
20260508115524 30 350 4.8 4.8 0.00 0.00 0.00 69 1013.5
20260508115024 30 2 4.8 4.8 0.00 0.00 0.00 69 1013.5
20260508114530 30 344 6.4 8.0 0.00 0.00 0.00 69 1013.5
20260508114024 30 12 4.8 4.8 0.00 0.00 0.00 69 1013.5
20260508113525 30 109 3.2 3.2 0.00 0.00 0.00 68 1013.2
20260508113025 30 161 4.8 4.8 0.00 0.00 0.00 68 1013.2
20260508112524 30 14 3.2 3.2 0.00 0.00 0.00 68 1013.2
20260508112024 30 11 4.8 4.8 0.00 0.00 0.00 68 1013.2
20260508111524 30 13 4.8 4.8 0.00 0.00 0.00 68 1012.9
20260508111024 30 1 4.8 4.8 0.00 0.00 0.00 68 1012.9
20260508110526 30 7 4.8 4.8 0.00 0.00 0.00 68 1012.9
20260508110024 30 353 6.4 9.7 0.00 0.00 0.00 68 1012.9
20260508105524 30 19 8.0 9.7 0.00 0.00 0.00 68 1012.9
20260508105027 30 7 3.2 4.8 0.00 0.00 0.00 68 1012.5
20260508104524 30 15 3.2 3.2 0.00 0.00 0.00 68 1012.5
20260508104028 30 359 3.2 3.2 0.00 0.00 0.00 68 1012.5
20260508103524 30 252 1.6 1.6 0.00 0.00 0.00 68 1012.5
20260508103024 31 4 3.2 4.8 0.00 0.00 0.00 68 1012.5
20260508102525 31 306 6.4 9.7 0.00 0.00 0.00 68 1012.9
20260508102024 31 347 4.8 4.8 0.00 0.00 0.00 68 1012.5
20260508101524 31 10 6.4 8.0 0.00 0.00 0.00 68 1012.2
20260508101025 31 20 4.8 8.0 0.00 0.00 0.00 67 1012.2
20260508100524 31 15 6.4 8.0 0.00 0.00 0.00 67 1012.2
20260508100024 31 341 4.8 8.0 0.00 0.00 0.00 66 1012.5
20260508095525 31 14 9.7 11.3 0.00 0.00 0.00 66 1012.5
20260508095024 31 345 3.2 3.2 0.00 0.00 0.00 66 1012.5
20260508094524 31 340 4.8 4.8 0.00 0.00 0.00 67 1012.2
20260508094024 31 36 3.2 4.8 0.00 0.00 0.00 67 1012.2
20260508093527 31 349 11.3 14.5 0.00 0.00 0.00 66 1012.2
20260508093024 31 354 6.4 11.3 0.00 0.00 0.00 66 1012.2
20260508092524 31 345 3.2 3.2 0.00 0.00 0.00 66 1012.2
20260508092025 31 8 8.0 9.7 0.00 0.00 0.00 66 1011.9
20260508091525 31 15 8.0 9.7 0.00 0.00 0.00 65 1011.9
20260508091025 31 27 4.8 4.8 0.00 0.00 0.00 65 1012.2
20260508090525 31 197 0.0 0.0 0.00 0.00 0.00 66 1012.2
20260508090024 31 6 8.0 9.7 0.00 0.00 0.00 65 1011.9
20260508085524 31 0 4.8 4.8 0.00 0.00 0.00 65 1011.9
20260508085024 31 286 1.6 3.2 0.00 0.00 0.00 66 1011.9
20260508084524 31 6 8.0 9.7 0.00 0.00 0.00 64 1011.9
20260508084024 31 43 6.4 8.0 0.00 0.00 0.00 65 1011.9
20260508083525 31 19 8.0 11.3 0.00 0.00 0.00 64 1011.9
20260508083025 32 289 1.6 1.6 0.00 0.00 0.00 65 1011.9
20260508082524 32 341 12.9 14.5 0.00 0.00 0.00 63 1011.9
20260508082025 32 4 8.0 11.3 0.00 0.00 0.00 63 1011.9
20260508081525 32 118 3.2 4.8 0.00 0.00 0.00 61 1011.9
20260508081025 32 6 1.6 3.2 0.00 0.00 0.00 62 1011.9
20260508080524 32 334 3.2 4.8 0.00 0.00 0.00 61 1011.9
20260508080025 32 345 8.0 9.7 0.00 0.00 0.00 61 1011.9
20260508075524 32 225 6.4 9.7 0.00 0.00 0.00 60 1011.9
20260508075025 32 358 4.8 8.0 0.00 0.00 0.00 61 1011.9
20260508074525 32 140 4.8 8.0 0.00 0.00 0.00 60 1011.9
20260508074024 32 309 3.2 3.2 0.00 0.00 0.00 61 1011.9
20260508073525 32 18 1.6 4.8 0.00 0.00 0.00 61 1011.9
20260508073024 32 225 6.4 12.9 0.00 0.00 0.00 60 1011.9
20260508072525 32 8 4.8 11.3 0.00 0.00 0.00 60 1011.9
20260508072026 32 8 6.4 11.3 0.00 0.00 0.00 60 1011.9
20260508071524 32 29 6.4 12.9 0.00 0.00 0.00 60 1012.2
20260508071025 33 351 6.4 8.0 0.00 0.00 0.00 59 1011.9
20260508070525 32 17 6.4 9.7 0.00 0.00 0.00 60 1011.9
20260508070025 33 358 4.8 11.3 0.00 0.00 0.00 59 1012.2
20260508065524 32 33 6.4 11.3 0.00 0.00 0.00 60 1012.2
20260508065025 33 351 11.3 14.5 0.00 0.00 0.00 59 1012.2
20260508064524 33 128 8.0 11.3 0.00 0.00 0.00 58 1012.2
20260508064024 33 229 1.6 3.2 0.00 0.00 0.00 58 1012.2
20260508063525 33 44 4.8 8.0 0.00 0.00 0.00 56 1012.2
20260508063024 33 250 1.6 1.6 0.00 0.00 0.00 57 1012.2
20260508062524 33 237 1.6 1.6 0.00 0.00 0.00 58 1012.2
20260508062024 33 355 12.9 16.1 0.00 0.00 0.00 57 1012.2
20260508061524 33 85 0.0 1.6 0.00 0.00 0.00 57 1012.2
20260508061026 33 230 3.2 3.2 0.00 0.00 0.00 57 1012.5
20260508060524 33 310 11.3 12.9 0.00 0.00 0.00 57 1012.5
20260508060025 33 17 4.8 8.0 0.00 0.00 0.00 58 1012.9
20260508055525 33 0 6.4 12.9 0.00 0.00 0.00 58 1012.5
20260508055024 33 347 3.2 3.2 0.00 0.00 0.00 58 1012.5
20260508054525 33 10 4.8 4.8 0.00 0.00 0.00 59 1012.5
20260508054024 34 11 4.8 9.7 0.00 0.00 0.00 58 1012.9
20260508053524 33 289 4.8 4.8 0.00 0.00 0.00 59 1012.9
20260508053024 33 348 6.4 11.3 0.00 0.00 0.00 59 1012.9
20260508052524 33 14 4.8 8.0 0.00 0.00 0.00 58 1012.9
20260508052024 33 3 1.6 1.6 0.00 0.00 0.00 59 1012.9
20260508051524 33 219 1.6 1.6 0.00 0.00 0.00 60 1012.9
20260508051024 33 23 3.2 3.2 0.00 0.00 0.00 62 1012.9
20260508050524 33 24 6.4 9.7 0.00 0.00 0.00 61 1013.2
20260508050024 33 131 6.4 8.0 0.00 0.00 0.00 60 1013.5
20260508045525 33 261 3.2 3.2 0.00 0.00 0.00 61 1013.5
20260508045024 34 284 3.2 3.2 0.00 0.00 0.00 59 1013.2
20260508044524 34 272 3.2 3.2 0.00 0.00 0.00 57 1013.2
20260508044024 33 202 0.0 1.6 0.00 0.00 0.00 59 1013.5
20260508043524 33 22 1.6 1.6 0.00 0.00 0.00 58 1013.5
20260508043024 33 252 4.8 4.8 0.00 0.00 0.00 55 1013.5
20260508042524 34 34 4.8 8.0 0.00 0.00 0.00 53 1013.5
20260508042026 33 269 1.6 3.2 0.00 0.00 0.00 55 1013.5
20260508041524 34 185 1.6 1.6 0.00 0.00 0.00 54 1013.5
20260508041024 34 22 1.6 4.8 0.00 0.00 0.00 53 1013.5
20260508040524 33 335 3.2 8.0 0.00 0.00 0.00 55 1013.5
20260508040026 33 148 1.6 3.2 0.00 0.00 0.00 56 1013.5
20260508035523 33 30 4.8 8.0 0.00 0.00 0.00 57 1013.9
20260508035030 32 255 0.0 1.6 0.00 0.00 0.00 59 1013.9
20260508034525 32 211 4.8 4.8 0.00 0.00 0.00 59 1013.9
20260508034024 33 208 1.6 1.6 0.00 0.00 0.00 59 1013.9
20260508033036 33 177 1.6 1.6 0.00 0.00 0.00 58 1014.2